Location: Maignaut
(43.8886°N, 0.4051°E)
Time: 18:40:18
(UTC+00:00)

Cosmos 1470 Rocket - Pass Details

Date: 27 February 2020
Orbit: 604 x 633 km, 82.5° (Epoch: 04 April)

Event Time Altitude Azimuth Distance (km) Brightness Sun altitude
Rises 18:33:49 0° 196° (SSW) 2,861 7.2 -9.8°
Reaches altitude 10° 18:36:02 10° 199° (SSW) 1,966 6.4 -10.2°
Maximum altitude 18:40:21 61° 280° (W) 705 4.2 -11.0°
Drops below altitude 10° 18:44:44 10° 2° (N) 2,000 6.2 -11.8°
Sets 18:47:01 0° 6° (N) 2,916 7.0 -12.2°
